Mobile, AL

11:38 AM CDT on August 31, 2016 (GMT -0500)
Mobile Downtown

Weather History for KBFM - May, 2013

Change the Weather History Date:

Tuesday, May 7, 2013

  Actual Average Record
Temperature  
Mean Temperature 64 °F -  
Max Temperature 73 °F 80 °F 87 °F (2002)
Min Temperature 54 °F 61 °F 53 °F (2016)
Degree Days  
Heating Degree Days 2    
Growing Degree Days 14 (Base 50)    
Moisture  
Dew Point 56 °F    
Average Humidity 77    
Maximum Humidity 97    
Minimum Humidity 53    
Precipitation  
Precipitation 0.00 in - - ()
Sea Level Pressure  
Sea Level Pressure 30.02 in    
Wind  
Wind Speed 4 mph (SW)    
Max Wind Speed 10 mph    
Max Gust Speed -    
Visibility 10 miles    
Events      
Averages and records for this station are not official NWS values.
T = Trace of Precipitation, MM = Missing Value Source: NWS Daily Summary

Daily Weather History Graph

Daily Weather History Graph

Search for Another Location

Airport or City:

Trip Planner

Search our weather history database for the weather conditions in past years. The results will help you decide how hot, cold, wet, or windy it might be!

Date:

Astronomy

May. 07, 2013 Rise Set
Actual Time 6:03 AM CDT 7:34 PM CDT
Civil Twilight 5:37 AM CDT 8:00 PM CDT
Nautical Twilight 5:06 AM CDT 8:31 PM CDT
Astronomical Twilight 4:33 AM CDT 9:04 PM CDT
Moon 4:28 AM CDT (5/7) 5:41 PM CDT (5/7)
Length of Visible Light 14h 23m
Length of Day
13h 31m
Waning Crescent, 5% of the Moon is Illuminated
May 7
Waning Crescent
May 9
New
May 17
First Quarter
May 24
Full
May 31
Last Quarter

Hourly Weather History & Observations

Time (CDT) Temp. Dew Point Humidity Pressure Visibility Wind Dir Wind Speed Gust Speed Precip Events Conditions
12:53 AM 54.0 °F 53.1 °F 97% 30.00 in 10.0 mi Calm Calm - N/A   Clear
1:53 AM 55.9 °F 54.0 °F 93% 29.99 in 10.0 mi West 3.5 mph - N/A   Clear
2:53 AM 57.0 °F 53.1 °F 87% 29.98 in 10.0 mi WSW 5.8 mph - N/A   Clear
3:23 AM 55.4 °F 53.6 °F 94% 29.98 in 10.0 mi West 4.6 mph - N/A   Clear
3:53 AM 55.9 °F 53.1 °F 90% 29.99 in 10.0 mi WSW 4.6 mph - N/A   Clear
5:53 AM 55.0 °F 53.1 °F 93% 30.01 in 10.0 mi WSW 4.6 mph - N/A   Clear
6:53 AM 57.0 °F 54.0 °F 89% 30.03 in 10.0 mi West 5.8 mph - N/A   Clear
7:53 AM 62.1 °F 55.9 °F 80% 30.05 in 10.0 mi WSW 4.6 mph - N/A   Clear
8:53 AM 68.0 °F 55.9 °F 65% 30.06 in 10.0 mi Variable 4.6 mph - N/A   Clear
9:53 AM 70.0 °F 55.0 °F 59% 30.06 in 10.0 mi WNW 5.8 mph - N/A   Partly Cloudy
10:53 AM 73.0 °F 55.0 °F 53% 30.06 in 10.0 mi WNW 5.8 mph - N/A   Mostly Cloudy
11:53 AM 69.1 °F 57.9 °F 68% 30.05 in 10.0 mi ESE 8.1 mph - N/A   Mostly Cloudy
12:53 PM 70.0 °F 59.0 °F 68% 30.03 in 10.0 mi SE 10.4 mph - N/A   Overcast
1:53 PM 72.0 °F 59.0 °F 64% 30.02 in 10.0 mi SE 10.4 mph - N/A   Mostly Cloudy
2:53 PM 73.0 °F 59.0 °F 61% 30.01 in 10.0 mi SE 9.2 mph - N/A   Overcast
3:53 PM 73.0 °F 57.9 °F 59% 30.00 in 10.0 mi SSE 4.6 mph - N/A   Overcast
4:53 PM 73.0 °F 57.0 °F 57% 30.00 in 10.0 mi SSW 6.9 mph - N/A   Mostly Cloudy
5:53 PM 72.0 °F 57.0 °F 59% 30.00 in 10.0 mi SW 6.9 mph - N/A   Overcast
6:53 PM 72.0 °F 57.0 °F 59% 30.01 in 10.0 mi Variable 3.5 mph - N/A   Mostly Cloudy
7:53 PM 66.9 °F 57.9 °F 73% 30.03 in 10.0 mi Calm Calm - N/A   Scattered Clouds
8:53 PM 62.1 °F 59.0 °F 90% 30.04 in 10.0 mi Calm Calm - N/A   Clear
9:53 PM 60.1 °F 57.9 °F 93% 30.06 in 10.0 mi Calm Calm - N/A   Clear
10:53 PM 61.0 °F 59.0 °F 93% 30.06 in 10.0 mi WSW 3.5 mph - N/A   Clear
11:53 PM 62.1 °F 60.1 °F 93% 30.06 in 10.0 mi WSW 3.5 mph - N/A   Clear